RADUGA-1M 1 [-]

Last updated on Jan. 18, 2020, 4:38 a.m. UTC

1 32373U 07058A   20017.53414991 -.00000059  00000-0  00000-0 0  9999
2 32373   4.9997  69.3709 0004718 267.5831  61.3275  0.99392988 29107
UTC
Height (km)
Latitude
Longitude
Inclination
Orbital Period
UTC large
Height (km)
Speed (km/s)
/
Latitude / Longitude
Inclination (degrees)
Orbital Period (minutes)
Azimuth
Elevation
Range (km)
Doppler Factor
iOS Compass Heading
iOS Angle

Next 30 passes for location: Hong Kong

Rise time Rise Azimuth (degrees) Set time Set Azimuth (degrees) Duration Max altitude (degrees)

No matching passes for this satellites